Terminal Aerodrome Forecast
Issued by NWS Sioux Falls, SD

Home | Current Version | Previous Version | Graphics & Text | Print | Product List | Glossary On
Versions: 1 2 3 4 5 6 7 8 9 10 11 12 13 14 15 16 17
000
FTUS43 KFSD 171130
TAFHON
TAF
KHON 171130Z 1712/1812 09004KT P6SM SCT250
     FM171500 05007KT P6SM SCT040
     FM180100 09005KT P6SM SCT050
     FM181000 11005KT 5SM BR BKN010=

USA.gov is the U.S. government's official web portal to all federal, state and local government web resources and services.